Wooster, OH

3:56 AM EST on January 24, 2018 (GMT -0500)
Wayne County

Weather History for KBJJ - February, 2014

Change the Weather History Date:

Saturday, February 8, 2014

  Actual Average Record
Temperature  
Mean Temperature 8 °F -  
Max Temperature 19 °F 35 °F 55 °F (2001)
Min Temperature -2 °F 19 °F -2 °F (2000)
Degree Days  
Heating Degree Days 56    
Moisture  
Dew Point 3 °F    
Average Humidity 72    
Maximum Humidity 88    
Minimum Humidity 42    
Precipitation  
Precipitation 0.00 in - - ()
Sea Level Pressure  
Sea Level Pressure 30.28 in    
Wind  
Wind Speed 2 mph (SSW)    
Max Wind Speed 7 mph    
Max Gust Speed -    
Visibility 7 miles    
Events Snow    
Averages and records for this station are not official NWS values.
T = Trace of Precipitation, MM = Missing Value Source: NWS Daily Summary

Daily Weather History Graph

Daily Weather History Graph

Search for Another Location

Airport or City:

Trip Planner

Search our weather history database for the weather conditions in past years. The results will help you decide how hot, cold, wet, or windy it might be!

Date:

Astronomy

Feb. 08, 2014 Rise Set
Actual Time 7:30 AM EST 5:53 PM EST
Civil Twilight 7:01 AM EST 6:22 PM EST
Nautical Twilight 6:29 AM EST 6:54 PM EST
Astronomical Twilight 5:57 AM EST 7:26 PM EST
Moon 12:46 PM EST (2/8) 2:42 AM EST (2/8)
Length of Visible Light 11h 20m
Length of Day
10h 23m
Waxing Gibbous, 68% of the Moon is Illuminated
Feb 8
Waxing Gibbous
Feb 14
Full
Feb 22
Last Quarter
Mar 1
New
Mar 8
First Quarter

Hourly Weather History & Observations

Time (EST) Temp. Windchill Dew Point Humidity Pressure Visibility Wind Dir Wind Speed Gust Speed Precip Events Conditions
12:56 AM 1.9 °F -7.6 °F -5.1 °F 72% 30.40 in 10.0 mi West 4.6 mph - N/A   Clear
1:56 AM 1.0 °F -6.7 °F -6.0 °F 72% 30.40 in 10.0 mi SW 3.5 mph - N/A   Clear
2:56 AM -0.0 °F - -6.0 °F 76% 30.40 in 10.0 mi Calm Calm - N/A   Clear
3:56 AM -0.9 °F - -7.1 °F 75% 30.39 in 10.0 mi Calm Calm - N/A   Clear
4:56 AM -2.9 °F -11.2 °F -7.1 °F 82% 30.39 in 10.0 mi WSW 3.5 mph - N/A   Clear
5:56 AM -2.9 °F - -8.0 °F 79% 30.38 in 9.0 mi Calm Calm - N/A   Clear
6:56 AM -2.0 °F - -7.1 °F 79% 30.39 in 8.0 mi Calm Calm - N/A   Clear
7:56 AM -0.9 °F - -5.1 °F 83% 30.39 in 7.0 mi Calm Calm - N/A   Clear
8:56 AM 1.9 °F - -0.9 °F 88% 30.39 in 7.0 mi Calm Calm - N/A   Clear
9:56 AM 8.1 °F 1.4 °F -0.0 °F 70% 30.38 in 10.0 mi SSW 3.5 mph - N/A   Clear
10:56 AM 10.0 °F 3.6 °F -0.9 °F 61% 30.37 in 10.0 mi West 3.5 mph - N/A   Partly Cloudy
11:56 AM 12.9 °F - -0.9 °F 54% 30.34 in 10.0 mi Calm Calm - N/A   Partly Cloudy
12:56 PM 14.0 °F 8.2 °F 1.0 °F 56% 30.33 in 10.0 mi South 3.5 mph - N/A   Clear
1:56 PM 15.1 °F 5.2 °F -0.0 °F 51% 30.30 in 10.0 mi South 6.9 mph - N/A   Clear
2:56 PM 16.0 °F 10.4 °F -2.9 °F 43% 30.29 in 10.0 mi SW 3.5 mph - N/A   Clear
3:56 PM 19.0 °F - -0.9 °F 42% 30.27 in 10.0 mi Calm Calm - N/A   Clear
4:56 PM 17.1 °F 8.7 °F 1.0 °F 50% 30.26 in 10.0 mi SE 5.8 mph - N/A   Overcast
5:56 PM 16.0 °F 7.4 °F 1.9 °F 54% 30.26 in 10.0 mi SE 5.8 mph - N/A   Overcast
6:56 PM 17.1 °F - 5.0 °F 59% 30.26 in 10.0 mi Calm Calm - N/A   Overcast
7:56 PM 17.1 °F - 6.1 °F 62% 30.26 in 10.0 mi Calm Calm - N/A   Overcast
8:27 PM 16.0 °F 10.4 °F 8.1 °F 71% 30.18 in 2.5 mi SSW 3.5 mph - 0.00 in Snow Light Snow
8:36 PM 16.0 °F 10.4 °F 9.0 °F 74% 30.18 in 1.2 mi South 3.5 mph - 0.00 in Snow Light Snow
8:48 PM 16.0 °F 10.4 °F 10.0 °F 77% 30.18 in 2.5 mi South 3.5 mph - 0.00 in Snow Light Snow
8:56 PM 16.0 °F 10.4 °F 10.9 °F 81% 30.25 in 2.5 mi South 3.5 mph - 0.00 in Snow Light Snow
9:01 PM 16.0 °F - 10.9 °F 81% 30.17 in 3.0 mi Calm Calm - 0.00 in Snow Light Snow
9:15 PM 16.0 °F - 10.9 °F 81% 30.17 in 2.5 mi Calm Calm - 0.00 in Snow Light Snow
9:26 PM 16.0 °F - 10.9 °F 81% 30.16 in 1.8 mi Calm Calm - 0.00 in Snow Light Snow
9:39 PM 16.0 °F - 12.0 °F 84% 30.17 in 2.0 mi Calm Calm - 0.00 in Snow Light Snow
9:46 PM 16.0 °F - 12.0 °F 84% 30.17 in 1.5 mi Calm Calm - 0.00 in Snow Light Snow
9:56 PM 16.0 °F - 12.0 °F 84% 30.24 in 1.5 mi Calm Calm - 0.00 in Snow Light Snow
10:34 PM 16.0 °F 10.4 °F 12.9 °F 88% 30.16 in 2.0 mi SE 3.5 mph - 0.00 in Snow Light Snow
10:56 PM 16.0 °F - 12.9 °F 88% 30.22 in 3.0 mi Calm Calm - 0.00 in Snow Light Snow
11:56 PM 16.0 °F 10.4 °F 12.9 °F 88% 30.20 in 4.0 mi SSE 3.5 mph - 0.00 in Snow Light Snow